Location: Bondokoli
(15.1025°N, 3.0257°W)
Time: 04:25:30
(UTC+00:00)

Daily predictions for brighter satellites

Satellite Brightness Start Highest point End
(mag) Time Altitude Azimuth Time Altitude Azimuth Time Altitude Azimuth
ATLAS 5 CENTAUR R/B 4.3 02:46:08 45° S 02:46:08 45° S 03:13:47 10° ESE
ATLAS 3B R/B 4.0 03:27:09 10° S 03:32:44 32° ESE 03:38:24 10° NE
BREEZE-M DEB (TANK) 4.5 03:52:42 63° SSW 03:52:42 63° SSW 04:12:04 10° SSE
SJ 16-02 3.5 04:05:40 10° SSE 04:09:12 24° E 04:12:43 10° NE
Cosmos 1867 4.1 04:12:39 55° E 04:12:39 55° E 04:17:34 10° SE
Hubble Space Telescope 2.8 04:16:04 26° ESE 04:16:04 26° ESE 04:17:59 10° ESE
SEDSat Delta rocket 3.8 04:21:34 83° W 04:21:51 87° NNW 04:28:26 10° ENE
Cosmos 2034 Rocket 3.9 04:25:35 67° SW 04:25:35 67° SW 04:31:22 10° S
Centaur AC-72 3.0 04:25:03 50° SW 04:26:38 73° SSE 04:36:13 10° ENE
Ariane H10 3.6 04:28:54 34° SSW 04:29:38 36° SSW 04:32:45 10° SE
Palapa 6 Rocket 4.5 04:30:31 26° SSE 04:30:31 26° SSE 04:33:37 10° E
OAO 3 Copernicus 4.3 04:31:46 72° ENE 04:31:46 72° ENE 04:36:18 10° ENE
Cosmos 921 Rocket 4.3 04:30:32 31° NE 04:31:55 40° ENE 04:36:09 10° SSE
Cosmos 2082 Rocket 4.3 04:38:12 12° SSW 04:38:12 12° SSW 04:38:46 10° SSW
Gbstr 26 Del rocket 3.3 04:35:23 60° E 04:35:23 60° E 04:39:36 10° SE
Cosmos 1634 Rocket 4.3 04:35:24 10° N 04:41:33 65° E 04:47:39 10° SSE
Cosmos 1782 3.0 04:43:53 62° SSE 04:43:53 62° SSE 04:47:12 10° S
ARIANE DEB (SYLDA) 4.4 04:35:54 25° WSW 04:43:34 46° SSW 04:48:22 10° ESE
Genesis I 3.3 04:44:15 72° E 04:44:15 72° E 04:48:03 10° SSE
Centaur D-1A AC-31 2.1 04:49:30 36° N 04:50:29 43° NNE 04:58:56 10° E
Cosmos 1151 Rocket 4.1 04:46:39 11° NNE 04:50:36 44° E 04:54:44 10° SSE
YAOGAN 6 2.7 04:51:51 35° NNE 04:53:14 73° E 04:56:46 10° S
ASTRO E2 4.4 04:56:50 20° N 04:56:50 20° N 04:58:42 10° NE
Cosmos 1241 Rocket 4.4 04:58:01 31° NW 05:01:02 68° WSW 05:07:14 10° SSE
OAO 3 Rocket 3.3 05:01:36 44° W 05:03:00 64° SW 05:07:53 10° SE
CZ-3 R/B 3.1 04:35:54 10° WSW 05:06:31 75° NNW 05:13:47 10° ENE
CZ-4B R/B 4.2 05:03:52 10° NNE 05:08:18 78° ESE 05:12:34 10° S
Stardust Del rocket 3.8 05:09:59 25° NNE 05:09:59 25° NNE 05:12:15 10° ENE
Okean 3 Rocket 4.3 05:06:39 10° SSW 05:10:13 32° W 05:10:13 32° W
Ariane H10+ 3.7 05:10:12 17° SSW 05:11:21 23° S 05:14:13 10° ESE
Cosmos 1812 2.6 05:11:14 28° NNW 05:13:06 65° W 05:16:53 10° S
Cosmos 836 Rocket 4.4 05:15:08 10° NNW 05:20:20 84° WSW 05:25:31 10° S
BREEZE-M DEB (TANK) 3.0 05:20:54 34° WNW 05:21:20 36° NW 05:24:46 10° NNE
Cosmos 1328 Rocket 3.6 05:17:50 10° N 05:22:09 81° E 05:26:27 10° S
ATLAS 3B R/B 3.4 05:19:31 16° WSW 05:23:11 26° WNW 05:28:30 10° N
Cosmos 1340 Rocket 2.6 05:22:42 10° S 05:26:37 79° W 05:30:34 10° N
COSMO-SKYMED 1 3.7 05:23:50 10° SSE 05:27:56 43° ENE 05:32:03 10° N
CZ-2C R/B 3.4 05:24:09 10° SSE 05:29:32 55° ENE 05:34:48 10° N
Meteor 2-6 Rocket 4.1 05:27:24 10° N 05:32:46 72° W 05:38:13 10° S
Cosmos 1408 Rocket 4.1 05:29:07 10° SSW 05:33:03 35° W 05:36:59 10° NNW
ARIANE 5 R/B 2.9 05:33:13 10° WSW 05:35:47 22° S 05:38:17 10° SE
ADEOS 3.5 05:30:54 10° NNE 05:36:07 86° WNW 05:41:20 10° SSW
IUS-1 SRM-2 4.3 05:35:59 14° NW 05:39:18 42° NNE 05:54:51 10° E
FAST Rocket 3.9 05:36:44 10° S 05:39:47 90° WSW 05:42:22 10° N
Lacrosse 5 2.3 05:36:10 10° SW 05:40:53 39° NW 05:45:37 10° NNE
SL-27 R/B 4.0 05:39:32 10° N 05:42:47 37° ENE 05:45:58 10° SE
H-2A R/B 4.0 05:40:33 10° NNW 05:43:21 20° WNW 05:46:11 10° SW
BLOCK DM-SL R/B 4.2 05:41:53 10° SSW 05:45:12 19° SSE 05:53:47 10° ESE
Cosmos 1743 Rocket 3.6 05:41:00 10° SSW 05:45:18 56° W 05:49:35 10° N
SJ 16-02 2.9 05:45:11 10° WSW 05:47:34 14° WNW 05:49:57 10° NW
Cosmos 1656 3.5 05:44:54 10° SSW 05:50:20 79° WNW 05:55:44 10° NNE
BREEZE-M DEB (TANK) 4.3 05:38:00 10° NW 05:50:58 63° NE 05:54:26 10° SE
Fermi 3.9 05:47:40 13° WNW 05:51:15 63° NNE 05:55:15 10° ESE
CZ-4B R/B 2.9 05:48:19 10° NNE 05:51:59 77° ESE 05:55:48 10° S
NATO 3D Rocket 3.9 05:47:20 12° WNW 05:52:16 74° NNE 05:59:35 10° E
Hubble Space Telescope 2.8 05:52:09 10° WSW 05:54:50 17° SSW 05:57:33 10° S
Nadezhda 4 Rocket 4.4 05:49:26 10° SSW 05:55:08 41° W 06:00:54 10° NNW
SMAP 4.5 05:51:45 10° NNE 05:56:10 43° E 06:00:34 10° S
GPS 2-17 Rocket1 3.4 05:52:26 10° W 05:56:40 48° N 06:01:01 10° ENE
Meteor 1-31 Rocket 4.2 05:55:27 10° NNW 05:58:15 19° WNW 06:01:03 10° WSW
Skynet4D Del rocket 3.5 05:54:06 10° WSW 05:59:27 84° NNW 06:04:59 10° ENE
Envisat 4.3 05:56:57 10° NNW 06:00:20 18° WNW 06:03:42 10° WSW
NOSS 2-3 (C) 3.9 05:56:33 10° SSW 06:00:40 64° ESE 06:04:31 10° NNE
Meteor 2-15 4.5 05:55:53 10° NNW 06:01:49 61° W 06:07:46 10° S
CZ-2C R/B 3.2 06:01:15 10° N 06:06:23 63° WNW 06:11:48 10° SSW
GOES 2 Rocket 4.2 05:58:40 10° WSW 06:06:30 84° SSE 06:12:16 10° ENE
